Burlington, VT

12:49 AM EST on November 18, 2019 (GMT -0500)
Burlington International

Weather History for KBTV - September, 2019

Change the Weather History Date:

Thursday, September 26, 2019

  Actual Average Record
Temperature  
Mean Temperature 60 °F 56 °F  
Max Temperature 67 °F 66 °F 91 °F (2017)
Min Temperature 52 °F 47 °F 27 °F (1947)
Degree Days  
Heating Degree Days 5 9  
Month to date heating degree days 80 133  
Since 1 July heating degree days 84 175  
Cooling Degree Days 0 0  
Month to date cooling degree days 22 41  
Year to date cooling degree days 602 489  
Growing Degree Days 12 (Base 50)    
Moisture  
Dew Point 54 °F    
Average Humidity 74    
Maximum Humidity 90    
Minimum Humidity 57    
Precipitation  
Precipitation 0.44 in 0.13 in 1.91 in (1899)
Month to date precipitation 3.69 3.13  
Year to date precipitation 29.98 27.20  
Snow  
Snow 0.00 in 0.00 in 0.00 in (2001)
Month to date snowfall 0.0 0.0  
Since 1 July snowfall 0.0 0.0  
Since 1 September snowfall 0.0 0.0  
Snow Depth 0.00 in    
Sea Level Pressure  
Sea Level Pressure 29.74 in    
Wind  
Wind Speed 10 mph (SSW)    
Max Wind Speed 18 mph    
Max Gust Speed 25 mph    
Visibility 9 miles    
Events Rain    
T = Trace of Precipitation, MM = Missing Value Source: NWS Daily Summary

Daily Weather History Graph

Daily Weather History Graph

Search for Another Location

Airport or City:

Astronomy

Sep. 26, 2019 Rise Set
Actual Time 6:44 AM EDT 6:43 PM EDT
Civil Twilight 6:15 AM EDT 7:11 PM EDT
Nautical Twilight 5:41 AM EDT 7:45 PM EDT
Astronomical Twilight 5:06 AM EDT 8:20 PM EDT
Moon 3:37 AM EDT (9/26) 6:02 PM EDT (9/26)
Length of Visible Light 12h 56m
Length of Day
11h 58m
Waning Crescent, 7% of the Moon is Illuminated
Sep 26
Waning Crescent
Sep 28
New
Oct 5
First Quarter
Oct 13
Full
Oct 21
Last Quarter

Hourly Weather History & Observations

Time (EDT) Temp. Dew Point Humidity Pressure Visibility Wind Dir Wind Speed Gust Speed Precip Events Conditions
12:54 AM 66.0 °F 52.0 °F 60% 29.75 in 10.0 mi South 12.7 mph - N/A   Overcast
1:54 AM 66.0 °F 51.1 °F 59% 29.74 in 10.0 mi South 11.5 mph - N/A   Overcast
2:54 AM 66.0 °F 51.1 °F 59% 29.73 in 10.0 mi South 9.2 mph - N/A   Mostly Cloudy
3:54 AM 66.9 °F 51.1 °F 57% 29.71 in 10.0 mi South 12.7 mph - N/A   Mostly Cloudy
4:54 AM 66.0 °F 52.0 °F 60% 29.70 in 10.0 mi South 11.5 mph - N/A   Partly Cloudy
5:54 AM 66.0 °F 52.0 °F 60% 29.70 in 10.0 mi South 13.8 mph - N/A   Mostly Cloudy
6:54 AM 66.0 °F 52.0 °F 60% 29.70 in 10.0 mi South 13.8 mph 21.9 mph N/A   Mostly Cloudy
7:54 AM 66.0 °F 52.0 °F 60% 29.70 in 10.0 mi South 16.1 mph 21.9 mph N/A   Mostly Cloudy
8:54 AM 66.9 °F 53.1 °F 61% 29.70 in 10.0 mi South 12.7 mph - N/A   Mostly Cloudy
9:54 AM 66.9 °F 53.1 °F 61% 29.67 in 10.0 mi South 11.5 mph - N/A   Overcast
10:54 AM 64.9 °F 55.0 °F 70% 29.65 in 9.0 mi South 10.4 mph 19.6 mph 0.01 in Rain Light Rain
11:37 AM 62.1 °F 55.9 °F 80% 29.72 in 1.8 mi WSW 10.4 mph 20.7 mph 0.04 in Rain Heavy Rain
11:50 AM 60.8 °F 57.2 °F 88% 29.71 in 3.0 mi South 5.8 mph - 0.12 in Rain Rain
11:54 AM 61.0 °F 57.9 °F 90% 29.71 in 3.0 mi South 10.4 mph - 0.13 in Rain Rain
12:54 PM 61.0 °F 57.9 °F 90% 29.71 in 5.0 mi SSW 10.4 mph - 0.17 in Rain Light Rain
1:02 PM 61.0 °F 57.9 °F 90% 29.73 in 2.5 mi NNW 12.7 mph - 0.02 in Rain Heavy Rain
1:09 PM 61.0 °F 57.0 °F 87% 29.72 in 2.5 mi Variable 6.9 mph - 0.07 in Rain Rain
1:12 PM 61.0 °F 57.9 °F 90% 29.73 in 4.0 mi Variable 4.6 mph - 0.07 in Rain Light Rain
1:32 PM 61.0 °F 57.9 °F 90% 29.73 in 8.0 mi South 5.8 mph - 0.10 in Rain Light Rain
1:41 PM 61.0 °F 57.9 °F 90% 29.73 in 10.0 mi South 6.9 mph - 0.10 in Rain Light Rain
1:54 PM 61.0 °F 57.9 °F 90% 29.72 in 10.0 mi South 5.8 mph - 0.10 in   Mostly Cloudy
2:54 PM 61.0 °F 57.0 °F 87% 29.72 in 10.0 mi South 9.2 mph - 0.02 in Rain Light Rain
3:54 PM 61.0 °F 55.9 °F 83% 29.71 in 10.0 mi South 6.9 mph - 0.01 in Rain Light Rain
4:54 PM 61.0 °F 57.9 °F 90% 29.73 in 10.0 mi South 8.1 mph - 0.00 in   Mostly Cloudy
5:54 PM 62.1 °F 57.0 °F 84% 29.74 in 10.0 mi SSW 9.2 mph - N/A   Scattered Clouds
6:54 PM 60.1 °F 57.0 °F 90% 29.75 in 10.0 mi South 10.4 mph - N/A   Scattered Clouds
7:54 PM 59.0 °F 55.9 °F 90% 29.79 in 10.0 mi South 9.2 mph - N/A   Mostly Cloudy
8:54 PM 60.1 °F 54.0 °F 80% 29.81 in 10.0 mi SW 5.8 mph - 0.00 in Rain Light Rain
9:54 PM 57.9 °F 48.9 °F 72% 29.86 in 10.0 mi WSW 5.8 mph - 0.00 in   Partly Cloudy
10:54 PM 57.9 °F 46.9 °F 67% 29.89 in 10.0 mi West 10.4 mph - N/A   Partly Cloudy
11:54 PM 57.9 °F 46.0 °F 65% 29.90 in 10.0 mi West 6.9 mph - N/A   Clear